Location: Dixon
(37.9953°N, 92.0959°W)
Time: 09:28:28
(UTC+00:00)

Hubble Space Telescope - Pass Details

Date: 12 December 2025
Orbit: 479 x 481 km, 28.5° (Epoch: 14 January)

Event Time Altitude Azimuth Distance (km) Brightness Sun altitude
Rises 00:31:22 0° 239° (WSW) 2,524 5.6 -19.5°
Reaches altitude 10° 00:34:02 10° 221° (SW) 1,645 4.0 -20.0°
Maximum altitude 00:36:43 18° 175° (S) 1,212 2.6 -20.5°
Enters shadow 00:37:28 17° 159° (SSE) 1,252 2.5 -20.7°
